Weather History for KNCA - January, 2013

Change the Weather History Date:

Sunday, January 27, 2013

  Actual Average Record
Temperature  
Mean Temperature 36 °F -  
Max Temperature 43 °F 52 °F 71 °F (1999)
Min Temperature 28 °F 33 °F 18 °F (2003)
Degree Days  
Heating Degree Days 30    
Moisture  
Dew Point 25 °F    
Average Humidity 72    
Maximum Humidity 88    
Minimum Humidity 47    
Precipitation  
Precipitation 0.00 in - - ()
Sea Level Pressure  
Sea Level Pressure 30.53 in    
Wind  
Wind Speed 7 mph (NNE)    
Max Wind Speed 14 mph    
Max Gust Speed 18 mph    
Visibility 7 miles    
Events      
Averages and records for this station are not official NWS values.
T = Trace of Precipitation, MM = Missing Value Source: NWS Daily Summary

Daily Weather History Graph

Daily Weather History Graph

Search for Another Location

Airport or City:

Trip Planner

Search our weather history database for the weather conditions in past years. The results will help you decide how hot, cold, wet, or windy it might be!

Date:

Astronomy

Jan. 27, 2013 Rise Set
Actual Time 7:11 AM EST 5:34 PM EST
Civil Twilight 6:44 AM EST 6:01 PM EST
Nautical Twilight 6:14 AM EST 6:31 PM EST
Astronomical Twilight 5:44 AM EST 7:01 PM EST
Moon 6:22 PM EST (1/27) 7:06 AM EST (1/27)
Length of Visible Light 11h 16m
Length of Day
10h 23m
Full, 100% of the Moon is Illuminated
Jan 27
Full
Feb 3
Last Quarter
Feb 10
New
Feb 17
First Quarter
Feb 25
Full

Hourly Weather History & Observations

Time (EST) Temp. Windchill Dew Point Humidity Pressure Visibility Wind Dir Wind Speed Gust Speed Precip Events Conditions
12:56 AM 30.0 °F 22.4 °F 27.0 °F 88% 30.42 in 4.0 mi North 8.1 mph - N/A   Overcast
1:56 AM 30.0 °F 23.2 °F 27.0 °F 88% 30.45 in 4.0 mi NNE 6.9 mph - N/A   Overcast
2:56 AM 30.0 °F 24.1 °F 27.0 °F 88% 30.47 in 7.0 mi NNE 5.8 mph - N/A   Overcast
3:56 AM 28.9 °F 21.9 °F 25.0 °F 85% 30.47 in 5.0 mi NNE 6.9 mph - N/A   Scattered Clouds
4:08 AM 28.4 °F 22.2 °F 24.8 °F 86% 30.46 in 5.0 mi North 5.8 mph - N/A   Mostly Cloudy
4:56 AM 28.9 °F 21.9 °F 25.0 °F 85% 30.48 in 5.0 mi North 6.9 mph - N/A   Mostly Cloudy
5:56 AM 28.9 °F 21.1 °F 25.0 °F 85% 30.50 in 4.0 mi NNE 8.1 mph - N/A   Mostly Cloudy
6:56 AM 28.0 °F 20.8 °F 25.0 °F 88% 30.51 in 4.0 mi NNE 6.9 mph - N/A   Mostly Cloudy
7:19 AM 28.4 °F 20.4 °F 24.8 °F 86% 30.51 in 3.0 mi NNE 8.1 mph - N/A   Scattered Clouds
7:56 AM 28.9 °F 20.4 °F 25.0 °F 85% 30.54 in 3.0 mi NNE 9.2 mph - N/A   Scattered Clouds
8:56 AM 30.9 °F 23.5 °F 26.1 °F 82% 30.58 in 4.0 mi North 8.1 mph - N/A   Scattered Clouds
9:56 AM 36.0 °F 27.5 °F 26.1 °F 67% 30.60 in 6.0 mi NE 12.7 mph 18.4 mph N/A   Partly Cloudy
10:56 AM 37.9 °F 29.6 °F 23.0 °F 55% 30.61 in 7.0 mi NE 13.8 mph - N/A   Partly Cloudy
11:56 AM 39.9 °F 32.5 °F 21.0 °F 47% 30.58 in 8.0 mi ENE 12.7 mph - N/A   Partly Cloudy
12:56 PM 42.1 °F 36.1 °F 24.1 °F 49% 30.56 in 9.0 mi NNE 10.4 mph - N/A   Partly Cloudy
1:56 PM 43.0 °F 37.7 °F 25.0 °F 49% 30.54 in 9.0 mi NNE 9.2 mph - N/A   Scattered Clouds
2:56 PM 43.0 °F 38.2 °F 25.0 °F 49% 30.54 in 10.0 mi NNE 8.1 mph - N/A   Scattered Clouds
3:56 PM 43.0 °F 39.5 °F 24.1 °F 47% 30.55 in 10.0 mi NE 5.8 mph - N/A   Mostly Cloudy
4:56 PM 42.1 °F 38.4 °F 25.0 °F 51% 30.57 in 10.0 mi North 5.8 mph - N/A   Mostly Cloudy
5:56 PM 37.9 °F 32.7 °F 26.1 °F 62% 30.56 in 10.0 mi NE 6.9 mph - N/A   Clear
6:56 PM 36.0 °F 32.1 °F 25.0 °F 64% 30.58 in 10.0 mi NNE 4.6 mph - N/A   Clear
7:56 PM 36.0 °F 31.1 °F 26.1 °F 67% 30.56 in 10.0 mi ENE 5.8 mph - N/A   Partly Cloudy
8:56 PM 33.1 °F 30.0 °F 25.0 °F 72% 30.57 in 10.0 mi North 3.5 mph - N/A   Scattered Clouds
9:56 PM 32.9 °F 28.5 °F 25.0 °F 73% 30.56 in 10.0 mi NNE 4.6 mph - N/A   Partly Cloudy
10:56 PM 30.9 °F 26.2 °F 25.0 °F 79% 30.55 in 10.0 mi NNE 4.6 mph - N/A   Partly Cloudy
11:06 PM - - - N/A% - - North - - N/A   Unknown
11:56 PM 30.0 °F - 25.0 °F 82% 30.55 in 10.0 mi Calm Calm - N/A   Clear